Location: Dannhausen
(51.8650°N, 10.1026°E)
Time: 18:31:22
(UTC+00:00)

GRACE-FO 2 - Pass Details

Date: 09 April 2020
Orbit: 483 x 504 km, 89.0° (Epoch: 02 June)

Event Time Altitude Azimuth Distance (km) Brightness Sun altitude
Exits shadow 19:49:55 19° 172° (S) 1,258 6.3 -15.1°
Maximum altitude 19:52:31 76° 89° (E) 522 4.5 -15.4°
Drops below altitude 10° 19:56:15 10° 3° (N) 1,713 7.8 -15.9°
Sets 19:58:21 0° 2° (N) 2,599 8.8 -16.2°
